Station PEXA2 - Pelican MXAK, AK Image indicating link to RSS feed of recent meteorological observations for station PEXA2


Conditions at PEXA2 as of
(3:03 am AKDT)
1103 GMT on 04/14/2024:
     

Click on the graph icon in the table below to see a time series plot of the last five days of that observation.

5-day plot - Wind Direction Wind Direction (WDIR): SE ( 130 deg true )
5-day plot - Wind Speed Wind Speed (WSPD): 5 kts
5-day plot - Wind Gust Wind Gust (GST): 9 kts
5-day plot - Atmospheric Pressure Atmospheric Pressure (PRES):29.94 in
5-day plot - Air Temperature Air Temperature (ATMP): 32.9 °F
5-day plot - Dew Point Dew Point (DEWP): 32.9 °F
5-day plot - Wind Chill Wind Chill (CHILL): 27.5 °F
5-day plot - Wind Speed at 10 Meters Wind Speed at 10 meters (WSPD10M): 6 kts
5-day plot - Wind Speed at 20 Meters Wind Speed at 20 meters (WSPD20M): 6 kts
5-day plot -  Wind Speed, Wind Gust and Atmospheric Pressure Combined plot of Wind Speed, Gust, and Air Pressure
Previous observations
TIME
(AKDT)
5-day plot - Wind Direction
WDIR
 
5-day plot - Wind Speed
WSPD
kts
5-day plot - Wind Gust
GST
kts
5-day plot - Wave Height
WVHT
ft
5-day plot - Dominant Wave Period
DPD
sec
5-day plot - Average Wave Period
APD
sec
5-day plot - Mean Wave Direction
MWD
 
5-day plot - Atmospheric Pressure
PRES
in
5-day plot - Pressure Tendency
PTDY
in
5-day plot - Air Temperature
ATMP
°F
5-day plot - Water Temperature
WTMP
°F
5-day plot - Dew Point
DEWP
°F
5-day plot - Salinity
SAL
psu
5-day plot - Visibility
VIS
nmi
5-day plot - Tide (above MLLW)
TIDE
ft
2024-04-14 02:53 amSSE 3 6----29.94- 33.1- 33.1---
2024-04-14 02:43 amSSE 4 8----29.94- 33.3- 33.3---
2024-04-14 02:33 amSSE 5 9----29.93- 33.4- 33.4---
2024-04-14 02:23 amSSE 6 12----29.93- 34.0- 34.0---
2024-04-14 02:13 am SE 5 9----29.93- 33.8- 33.8---
2024-04-14 02:03 am SE 5 10----29.93- 34.3- 34.3---
2024-04-14 01:53 amSSE 5 10----29.93- 34.5- 34.5---
2024-04-14 01:43 amSSE 6 14----29.93- 34.3- 34.3---
2024-04-14 01:33 amSSE 7 15----29.93- 34.3- 34.3---
2024-04-14 01:23 amSSE 7 15----29.93- 34.2- 34.2---
2024-04-14 01:13 amSSE 6 12----29.93- 34.2- 34.2---
2024-04-14 01:03 amSSE 6 11----29.93- 34.0- 34.0---
2024-04-14 12:53 amSSE 5 10----29.93- 34.0- 34.0---
2024-04-14 12:43 amSSE 4 8----29.93- 33.8- 33.8---
2024-04-14 12:33 am SE 4 8----29.94- 33.6- 33.6---
2024-04-14 12:23 am SE 4 6----29.93- 33.8- 33.8---
2024-04-14 12:14 am SE 5 7----29.93- 34.2- 34.2---
2024-04-14 12:03 amSSE 4 8----29.93- 34.5- 34.5---
2024-04-13 11:53 pmSSE 5 10----29.93- 34.5- 34.5---
2024-04-13 11:43 pm SE 6 10----29.93- 34.7- 34.7---
2024-04-13 11:33 pm SE 6 13----29.93- 34.5- 34.5---
2024-04-13 11:23 pm SE 3 7----29.93- 34.7- 34.7---
2024-04-13 11:13 pmSSE 4 9----29.93- 34.5- 34.5---
2024-04-13 11:03 pmSSE 5 10----29.93- 34.2- 34.2---
2024-04-13 10:53 pmSSE 4 7----29.93- 33.6- 33.6---
2024-04-13 10:43 pm SE 5 10----29.93- 33.6- 33.6---
2024-04-13 10:33 pmSSE 5 9----29.93- 33.6- 33.6---
2024-04-13 10:23 pm SE 4 9----29.93- 33.6- 33.6---
2024-04-13 10:13 pmSSE 4 7----29.93- 33.4- 33.4---
2024-04-13 10:03 pmSSE 3 6----29.93- 33.8- 33.8---
2024-04-13 09:53 pmSSE 3 6----29.93- 33.8- 33.8---
2024-04-13 09:43 pm SE 3 6----29.93- 34.2- 34.2---
2024-04-13 09:33 pm SE 3 5----29.93- 34.5- 34.5---
2024-04-13 09:23 pm SE 4 6----29.93- 34.7- 34.7---
2024-04-13 09:13 pm SE 3 6----29.93- 34.9- 34.9---
2024-04-13 09:03 pm SE 2 4----29.93- 35.1- 35.1---
2024-04-13 08:53 pm SE 3 5----29.93- 35.1- 35.1---
2024-04-13 08:43 pm SE 3 6----29.93- 35.2- 35.2---
2024-04-13 08:34 pmSSE 3 6----29.93- 35.2- 35.2---
2024-04-13 08:23 pmSSE 4 7----29.93- 35.2- 35.2---
2024-04-13 08:13 pm SE 5 8----29.93- 35.2- 35.2---
2024-04-13 08:03 pmSSE 4 7----29.93- 35.2- 35.2---
2024-04-13 07:53 pmSSE 3 7----29.92- 35.2- 35.2---
2024-04-13 07:43 pm S 2 4----29.92- 35.2- 35.2---
2024-04-13 07:33 pmSSE 2 4----29.92- 35.6- 35.6---
2024-04-13 07:23 pm S 2 3----29.92- 36.0- 36.0---
2024-04-13 07:13 pmSSW 2 5----29.92- 36.1- 36.1---
2024-04-13 07:03 pmSSW 3 5----29.91- 36.1- 36.1---
2024-04-13 06:53 pm S 3 6----29.91- 36.5- 36.5---
2024-04-13 06:43 pm S 3 5----29.91- 36.9- 36.9---
2024-04-13 06:33 pmSSE 3 6----29.91- 36.7- 36.7---
2024-04-13 06:23 pmSSE 4 8----29.91- 36.1- 36.1---
2024-04-13 06:13 pm E 4 7----29.92- 35.8- 35.8---
2024-04-13 06:03 pmNNW 4 10----29.92- 37.4- 37.4---
2024-04-13 05:53 pmESE 2 7----29.91- 38.1- 38.1---
2024-04-13 05:43 pm E 3 8----29.90- 38.7- 38.7---
2024-04-13 05:33 pmESE 4 9----29.90- 39.2- 39.2---
2024-04-13 05:23 pmESE 3 8----29.91- 38.5- 38.5---
2024-04-13 05:13 pm SE 4 8----29.91- 38.1- 38.1---
2024-04-13 05:03 pm S 7 12----29.91- 38.1- 38.1---
2024-04-13 04:53 pm S 4 7----29.91- 38.3- 38.3---
2024-04-13 04:43 pm S 3 7----29.90- 38.7- 38.7---
2024-04-13 04:33 pm S 5 10----29.90- 38.8- 38.8---
2024-04-13 04:23 pm S 5 11----29.90- 39.2- 39.2---
2024-04-13 04:13 pm S 6 10----29.90- 39.6- 39.6---
2024-04-13 03:53 pm SE 4 7----29.91- 39.9- 39.9---
2024-04-13 03:43 pm S 5 9----29.91- 39.9- 39.9---
2024-04-13 03:33 pm S 4 9----29.91- 41.0- 41.0---
2024-04-13 03:23 pm SE 4 8----29.91- 41.2- 41.2---
2024-04-13 03:13 pm SE 3 7----29.91- 41.0- 41.0---
2024-04-13 03:03 pm SE 5 8----29.91- 40.6- 40.6---
2024-04-13 02:53 pmSSE 4 10----29.91- 41.2- 41.2---
2024-04-13 02:43 pm S 4 9----29.91- 40.5- 40.3---
2024-04-13 02:33 pm S 4 9----29.91- 41.5- 39.7---
2024-04-13 02:23 pm S 4 8----29.90- 43.2- 42.4---
2024-04-13 02:13 pmSSE 3 6----29.90- 43.3- 43.3---
2024-04-13 02:03 pm E 2 7----29.90- 41.5- 41.5---
2024-04-13 01:53 pm E 2 5----29.91- 40.6- 40.6---
2024-04-13 01:43 pmESE 3 8----29.90- 40.6- 40.6---
2024-04-13 01:33 pm SE 3 7----29.90- 40.1- 40.1---
2024-04-13 01:23 pmSSE 4 8----29.90- 40.5- 40.5---
2024-04-13 01:13 pmSSE 5 9----29.90- 41.0- 41.0---
2024-04-13 01:03 pmSSE 6 13----29.90- 41.0- 41.0---
2024-04-13 12:53 pm S 4 10----29.89- 42.4- 42.1---
2024-04-13 12:43 pm S 5 12----29.88- 44.1- 41.9---
2024-04-13 12:33 pm S 5 14----29.88- 44.4- 42.4---
2024-04-13 12:23 pm S 6 13----29.88- 43.3- 42.4---
2024-04-13 12:13 pm S 5 11----29.88- 43.7- 43.3---
2024-04-13 12:03 pm S 6 16----29.88- 41.9- 41.9---
2024-04-13 11:53 am S 5 10----29.88- 41.5- 41.5---
2024-04-13 11:43 am S 5 10----29.88- 41.9- 41.9---
2024-04-13 11:33 am S 5 9----29.88- 41.9- 41.9---
2024-04-13 11:23 am SE 6 10----29.88- 41.7- 41.7---
2024-04-13 11:13 am SE 7 12----29.88- 40.5- 40.5---
2024-04-13 11:03 amESE 4 8----29.88- 39.4- 39.4---
2024-04-13 10:53 amENE 2 5----29.88- 38.7- 38.7---
2024-04-13 10:43 am S 3 8----29.88- 38.8- 38.8---
2024-04-13 10:33 amSSE 4 9----29.87- 39.7- 39.7---
2024-04-13 10:23 amSSE 3 7----29.87- 40.3- 40.3---
2024-04-13 10:13 amSSE 4 7----29.87- 41.0- 41.0---
2024-04-13 10:03 amSSE 4 7----29.87- 41.0- 41.0---
2024-04-13 09:53 amSSE 3 6----29.87- 40.5- 40.5---
2024-04-13 09:43 am SE 2 6----29.86- 39.7- 39.7---
2024-04-13 09:33 am- 0 3----29.86- 38.8- 38.8---
2024-04-13 09:23 am- 0 2----29.86- 38.5- 38.5---
2024-04-13 09:13 amESE 1 5----29.86- 38.7- 38.7---
2024-04-13 09:03 am SE 3 7----29.86- 38.1- 38.1---
2024-04-13 08:53 am SE 3 5----29.85- 37.4- 37.4---
2024-04-13 08:43 am N 2 6----29.86- 36.9- 36.9---
2024-04-13 08:33 amESE 2 6----29.85- 36.7- 36.7---
2024-04-13 08:23 am E 2 4----29.85- 36.3- 36.3---
2024-04-13 08:13 amESE 2 7----29.85- 36.3- 36.3---
2024-04-13 08:03 am SE 2 6----29.85- 36.1- 36.1---
2024-04-13 07:53 am SE 2 4----29.85- 35.8- 35.8---
2024-04-13 07:43 am SE 3 6----29.85- 35.2- 35.2---
2024-04-13 07:33 amSSE 3 8----29.85- 35.1- 35.1---
2024-04-13 07:23 am SE 4 8----29.85- 34.9- 34.9---
2024-04-13 07:13 amESE 3 6----29.85- 35.1- 35.1---
2024-04-13 07:03 amESE 2 5----29.85- 35.2- 35.2---
2024-04-13 06:53 amESE 3 6----29.84- 35.2- 35.2---
2024-04-13 06:43 amESE 2 5----29.84- 35.2- 35.2---
2024-04-13 06:33 am- 0 2----29.85- 35.4- 35.4---
2024-04-13 06:23 amNNE 3 7----29.85- 35.8- 35.8---
2024-04-13 06:13 am N 5 9----29.84- 35.8- 35.8---
2024-04-13 06:03 am N 3 7----29.84- 35.1- 35.1---
2024-04-13 05:53 amSSE 3 7----29.84- 34.7- 34.7---
2024-04-13 05:43 am S 4 8----29.84- 34.5- 34.5---
2024-04-13 05:33 amSSE 4 9----29.83- 34.3- 34.3---
2024-04-13 05:23 amSSE 5 9----29.83- 34.5- 34.5---
2024-04-13 05:13 amSSE 3 7----29.83- 34.5- 34.5---
2024-04-13 05:03 amSSE 3 6----29.83- 34.5- 34.5---
2024-04-13 04:53 am SE 1 3----29.84- 34.7- 34.7---
2024-04-13 04:43 am E 2 3----29.83- 34.7- 34.7---
2024-04-13 04:33 amSSE 3 6----29.83- 34.7- 34.7---
2024-04-13 04:23 amSSE 4 8----29.83- 34.9- 34.9---
2024-04-13 04:13 am SE 3 5----29.83- 34.7- 34.7---
2024-04-13 04:03 amESE 3 5----29.83- 34.5- 34.5---
2024-04-13 03:53 amSSE 3 7----29.83- 34.7- 34.7---
2024-04-13 03:43 amESE 2 4----29.83- 35.1- 35.1---
2024-04-13 03:33 amNNE 2 4----29.83- 35.2- 35.2---
2024-04-13 03:23 am E 1 3----29.82- 35.2- 35.2---
2024-04-13 03:13 am SE 2 4----29.82- 35.6- 35.6---
2024-04-13 03:03 amNNW 2 5----29.83- 36.0- 36.0---
2024-04-13 02:53 am N 2 6----29.82- 35.2- 35.2---